KB7DZR Weather Reports


time (UTC)temp
C
wind
direction
speed
KPH
gust
KPH
rain 1hr
cm
rain 24hr
cm
rain mn
cm
humidity
%
barometer
mb
20211017152504 15 100 8.0 20.9 0.00 0.00 0.00 26 1010.4
20211017151504 14 113 3.2 14.5 0.00 0.00 0.00 27 1010.5
20211017150504 13 113 6.4 19.3 0.00 0.00 0.00 27 1010.5
20211017150005 13 119 8.0 16.1 0.00 0.00 0.00 28 1010.5
20211017145005 12 106 9.7 12.9 0.00 0.00 0.00 30 1010.5
20211017144004 12 104 8.0 16.1 0.00 0.00 0.00 29 1010.4
20211017143005 12 96 4.8 12.9 0.00 0.00 0.00 29 1010.3
20211017134504 2 105 0.0 1.6 0.00 0.00 0.00 56 1010.6
20211017134006 2 191 0.0 0.0 0.00 0.00 0.00 56 1010.7
20211017125004 4 268 1.6 14.5 0.00 0.00 0.00 49 1011.3
20211017123005 3 313 0.0 0.0 0.00 0.00 0.00 51 1011.5
20211017122005 4 312 3.2 16.1 0.00 0.00 0.00 49 1011.3
20211017121006 4 302 0.0 0.0 0.00 0.00 0.00 48 1011.5
20211017120504 3 301 0.0 0.0 0.00 0.00 0.00 51 1011.5
20211017120005 3 287 0.0 0.0 0.00 0.00 0.00 51 1011.6
20211017115505 3 297 0.0 0.0 0.00 0.00 0.00 50 1011.5
20211017115005 3 244 0.0 0.0 0.00 0.00 0.00 51 1011.7
20211017114505 2 225 0.0 0.0 0.00 0.00 0.00 52 1011.7
20211017113505 3 226 0.0 0.0 0.00 0.00 0.00 50 1012.0
20211017112004 3 234 0.0 0.0 0.00 0.00 0.00 51 1011.8
20211017110005 4 295 0.0 0.0 0.00 0.00 0.00 49 1012.2
20211017105004 3 287 0.0 0.0 0.00 0.00 0.00 49 1012.4
20211017104504 3 263 0.0 0.0 0.00 0.00 0.00 50 1012.5
20211017102504 4 230 0.0 1.6 0.00 0.00 0.00 47 1013.0
20211017101504 5 235 0.0 1.6 0.00 0.00 0.00 46 1013.0
20211017100504 5 283 11.3 16.1 0.00 0.00 0.00 46 1013.1
20211017093505 6 305 14.5 20.9 0.00 0.00 0.00 44 1013.3
20211017092505 6 305 19.3 22.5 0.00 0.00 0.00 42 1013.2
20211017091004 6 287 8.0 19.3 0.00 0.00 0.00 45 1013.5
20211017090505 5 247 8.0 16.1 0.00 0.00 0.00 46 1013.8
20211017085507 5 264 0.0 1.6 0.00 0.00 0.00 46 1014.1
20211017085004 6 310 3.2 16.1 0.00 0.00 0.00 45 1013.9
20211017083504 4 229 0.0 0.0 0.00 0.00 0.00 50 1014.1
20211017081505 4 285 0.0 0.0 0.00 0.00 0.00 50 1014.3
20211017081005 3 214 0.0 0.0 0.00 0.00 0.00 51 1014.5
20211017080006 4 213 0.0 0.0 0.00 0.00 0.00 49 1014.5
20211017075504 4 213 0.0 0.0 0.00 0.00 0.00 48 1014.6
20211017075004 5 213 0.0 1.6 0.00 0.00 0.00 47 1014.6
20211017073504 3 223 0.0 0.0 0.00 0.00 0.00 49 1014.7
20211017073005 4 312 0.0 0.0 0.00 0.00 0.00 48 1014.8
20211017072004 5 312 0.0 0.0 0.00 0.00 0.00 46 1014.9
20211017071004 6 314 0.0 0.0 0.00 0.00 0.00 44 1015.2
20211017065004 7 317 0.0 16.1 0.00 0.00 0.00 41 1015.3
20211017063505 6 314 16.1 19.3 0.00 0.00 0.00 44 1015.4
20211017063005 7 310 14.5 19.3 0.00 0.00 0.00 41 1015.3
20211017062504 7 318 11.3 16.1 0.00 0.00 0.00 41 1015.3
20211017062004 7 314 12.9 16.1 0.00 0.00 0.00 42 1015.4
20211017061004 7 304 14.5 19.3 0.00 0.00 0.00 40 1015.5
20211017054504 9 310 0.0 0.0 0.00 0.00 0.00 35 1015.7
20211017054005 9 310 0.0 1.6 0.00 0.00 0.00 35 1015.8
20211017052504 9 313 0.0 1.6 0.00 0.00 0.00 33 1015.9
20211017052005 9 312 0.0 0.0 0.00 0.00 0.00 34 1015.8
20211017045505 9 283 0.0 1.6 0.00 0.00 0.00 33 1016.2
20211017045005 9 294 0.0 0.0 0.00 0.00 0.00 33 1016.2
20211017043505 10 294 0.0 1.6 0.00 0.00 0.00 31 1016.4
20211017041005 12 78 0.0 3.2 0.00 0.00 0.00 27 1016.5
20211017035505 12 103 1.6 16.1 0.00 0.00 0.00 26 1016.6
20211017034005 12 70 0.0 1.6 0.00 0.00 0.00 28 1016.8
20211017033506 12 69 0.0 3.2 0.00 0.00 0.00 27 1016.9
20211017031504 11 109 0.0 1.6 0.00 0.00 0.00 30 1017.1
20211017031004 12 92 0.0 1.6 0.00 0.00 0.00 29 1017.1
20211017025005 12 109 0.0 1.6 0.00 0.00 0.00 30 1017.3
20211017023005 11 49 0.0 0.0 0.00 0.00 0.00 31 1017.4
20211017022504 12 49 0.0 0.0 0.00 0.00 0.00 29 1017.4
20211017021504 12 46 0.0 1.6 0.00 0.00 0.00 27 1017.4
20211017020005 13 73 1.6 1.6 0.00 0.00 0.00 26 1017.3
20211017015504 13 85 0.0 3.2 0.00 0.00 0.00 26 1017.3
20211017015005 13 104 0.0 12.9 0.00 0.00 0.00 26 1017.4
20211017012005 13 71 1.6 9.7 0.00 0.00 0.00 27 1017.5
20211017010005 14 73 1.6 14.5 0.00 0.00 0.00 26 1017.7
20211017005005 15 75 1.6 11.3 0.00 0.00 0.00 26 1017.7
20211017003505 16 55 0.0 1.6 0.00 0.00 0.00 24 1017.8
20211017002504 17 294 0.0 1.6 0.00 0.00 0.00 24 1017.8
20211017001005 18 194 0.0 1.6 0.00 0.00 0.00 21 1018.1
20211017000505 19 174 4.8 8.0 0.00 0.00 0.00 20 1018.1
20211016235005 20 191 1.6 11.3 0.00 0.00 0.00 20 1018.1
20211016234504 20 190 6.4 19.3 0.00 0.00 0.00 20 1018.1
20211016233504 20 213 12.9 19.3 0.00 0.00 0.00 20 1018.1
20211016233005 20 186 16.1 24.1 0.00 0.00 0.00 20 1018.2
20211016232505 20 206 12.9 19.3 0.00 0.00 0.00 20 1018.3
20211016225504 20 263 1.6 11.3 0.00 0.00 0.00 20 1018.5
20211016225005 20 52 0.0 1.6 0.00 0.00 0.00 20 1018.6
20211016224005 20 31 1.6 4.8 0.00 0.00 0.00 21 1018.6
20211016223504 20 31 0.0 4.8 0.00 0.00 0.00 22 1018.6
20211016222005 19 290 0.0 4.8 0.00 0.00 0.00 24 1018.9
20211016221005 19 290 0.0 0.0 0.00 0.00 0.00 25 1018.9
20211016220505 18 290 0.0 1.6 0.00 0.00 0.00 26 1018.9
20211016214504 18 289 1.6 4.8 0.00 0.00 0.00 27 1019.2
20211016214005 18 289 1.6 8.0 0.00 0.00 0.00 27 1019.3
20211016212505 18 286 6.4 12.9 0.00 0.00 0.00 31 1019.6
20211016210005 17 309 9.7 12.9 0.00 0.00 0.00 31 1019.8
20211016204504 16 315 8.0 16.1 0.00 0.00 0.00 32 1020.0
20211016203505 16 296 8.0 14.5 0.00 0.00 0.00 33 1020.2
20211016202505 16 313 4.8 11.3 0.00 0.00 0.00 33 1020.3
20211016201504 15 311 1.6 11.3 0.00 0.00 0.00 39 1020.4
20211016201005 15 311 3.2 8.0 0.00 0.00 0.00 33 1020.6
20211016195504 14 308 9.7 14.5 0.00 0.00 0.00 38 1020.6
20211016195005 14 304 4.8 11.3 0.00 0.00 0.00 39 1020.9
20211016192005 13 301 12.9 19.3 0.00 0.00 0.00 39 1021.2
20211016191505 13 297 9.7 16.1 0.00 0.00 0.00 38 1021.3
20211016190505 13 288 11.3 19.3 0.00 0.00 0.00 40 1021.4
20211016185504 12 312 11.3 19.3 0.00 0.00 0.00 39 1021.4
20211016185005 12 307 11.3 19.3 0.00 0.00 0.00 40 1021.4
20211016182504 11 315 9.7 16.1 0.00 0.00 0.00 43 1021.7
20211016181005 10 295 3.2 8.0 0.00 0.00 0.00 43 1021.8
20211016180504 10 294 0.0 1.6 0.00 0.00 0.00 46 1021.8
20211016180004 10 294 0.0 1.6 0.00 0.00 0.00 46 1021.7
20211016175005 9 294 1.6 4.8 0.00 0.00 0.00 47 1021.9
20211016174004 9 294 0.0 11.3 0.00 0.00 0.00 48 1022.0
20211016172004 8 294 3.2 8.0 0.00 0.00 0.00 49 1022.1
20211016171505 7 295 1.6 9.7 0.00 0.00 0.00 50 1022.2
20211016170004 7 311 4.8 8.0 0.00 0.00 0.00 52 1022.3
20211016165504 7 312 0.0 8.0 0.00 0.00 0.00 54 1022.3
20211016163005 5 126 0.0 0.0 0.00 0.00 0.00 60 1022.4
20211016162504 5 126 0.0 0.0 0.00 0.00 0.00 62 1022.4
20211016162005 5 126 0.0 0.0 0.00 0.00 0.00 67 1022.3
20211016161005 3 126 0.0 0.0 0.00 0.00 0.00 70 1022.4
20211016160004 3 126 0.0 0.0 0.00 0.00 0.00 71 1022.5
20211016155004 2 126 0.0 0.0 0.00 0.00 0.00 73 1022.6